Location: M.A.R.S.Observatory
(35.4031°N, 81.5481°W)
Time: 10:06:02
(UTC-05:00)

SL-8 R/B - Visible Passes

Search period start: 11 February 2016 00:00
Search period end: 21 February 2016 00:00
Orbit: 657 x 668 km, 48.4° (Epoch: 11 February)

Date Brightness Start Highest point End Pass type
(mag) Time Alt. Az. Time Alt. Az. Time Alt. Az.
16 Feb 6.6 06:44:17 10° SSE 06:47:17 17° SE 06:50:18 10° E visible
18 Feb 6.4 06:03:57 10° S 06:07:11 18° SE 06:10:27 10° E visible
19 Feb 4.8 06:33:29 10° SSW 06:38:06 47° SE 06:42:44 10° ENE visible
20 Feb 6.1 05:23:40 10° S 05:27:07 20° SE 05:30:34 10° E visible
